Location: Zagreb
(45.8000°N, 16.0000°E)
Time: 08:07:16
(UTC+01:00)

N. Korean satellite - Visible Passes

Search period start: 08 February 2023 00:00
Search period end: 18 February 2023 00:00
Orbit: 406 x 441 km, 97.3° (Epoch: 07 February)

Date Brightness Start Highest point End Pass type
(mag) Time Alt. Az. Time Alt. Az. Time Alt. Az.
08 Feb 9.6 04:24:02 10° ENE 04:25:40 13° E 04:27:18 10° ESE visible
08 Feb 6.9 05:55:03 10° N 05:58:03 35° WNW 06:01:04 10° SW visible
09 Feb 7.0 05:11:49 10° NNE 05:15:02 55° E 05:18:15 10° S visible
10 Feb 9.4 04:29:38 10° NE 04:31:40 15° E 04:33:43 10° SE visible
10 Feb 7.1 06:01:04 10° N 06:03:58 30° WNW 06:06:53 10° SW visible
11 Feb 6.6 05:17:32 10° NNE 05:20:47 67° E 05:24:03 10° S visible
12 Feb 9.2 04:34:56 10° NE 04:37:16 18° E 04:39:36 10° SE visible
12 Feb 7.3 06:06:42 10° NNW 06:09:29 26° WNW 06:12:17 10° SW visible
13 Feb 6.3 05:22:52 10° NNE 05:26:08 80° E 05:29:26 10° S visible
14 Feb 9.0 04:39:55 10° NE 04:42:27 20° E 04:45:00 10° SE visible
14 Feb 7.5 06:11:57 10° NNW 06:14:36 23° WNW 06:17:16 10° WSW visible
15 Feb 6.2 05:27:49 10° NNE 05:31:06 87° WNW 05:34:23 10° SSW visible
16 Feb 8.8 04:44:32 10° NE 04:47:14 23° E 04:49:56 10° SSE visible
16 Feb 7.7 06:16:48 10° NNW 06:19:19 20° WNW 06:21:49 10° WSW visible
17 Feb 6.2 05:32:21 10° N 05:35:38 76° WNW 05:38:55 10° SSW visible
